Wetterdaten: Woche 21.12.15 - 27.12.15 (KW52)
Datum Zeit Temp. Aussen Temp. o. S. +5cm Feuchte Auss BlattFeu 1 Luftdruck Regen Sonnenschein Regendauer Solar Windben Empfang
21.12.2015 00:00 12,5 C 12,0 C 10,3 C 85 % 9 lf 1018,1 hPa 0,0 l/m 0,00 h 0,78 h 7 W/m 24,1 km/h (4 Bft) 90,50 %
21.12.2015 01:00 11,8 C 11,4 C 9,4 C 88 % 15 lf 1018,2 hPa 0,2 l/m 0,00 h 0,77 h 7 W/m 24,3 km/h (4 Bft) 96,51 %
21.12.2015 02:00 11,3 C 10,5 C 9,1 C 91 % 14 lf 1018,6 hPa 1,2 l/m 0,00 h 0,93 h 7 W/m 21,4 km/h (4 Bft) 95,87 %
21.12.2015 03:00 10,6 C 9,9 C 8,8 C 93 % 15 lf 1018,7 hPa 1,0 l/m 0,00 h 1,00 h 7 W/m 17,8 km/h (3 Bft) 95,80 %
21.12.2015 04:00 10,1 C 9,4 C 8,3 C 95 % 15 lf 1018,4 hPa 0,0 l/m 0,00 h 0,30 h 11 W/m 15,0 km/h (3 Bft) 96,27 %
21.12.2015 05:00 9,9 C 9,4 C 7,8 C 92 % 8 lf 1018,5 hPa 0,0 l/m 0,00 h 0,03 h 26 W/m 23,2 km/h (4 Bft) 95,02 %
21.12.2015 06:00 10,2 C 10,5 C 7,8 C 88 % 0 lf 1019,0 hPa 0,0 l/m 0,00 h 0,00 h 4 W/m 25,7 km/h (4 Bft) 95,40 %
21.12.2015 07:00 10,0 C 10,0 C 7,5 C 89 % 0 lf 1019,4 hPa 0,0 l/m 0,00 h 0,00 h 6 W/m 23,0 km/h (4 Bft) 98,44 %
21.12.2015 08:00 9,8 C 9,9 C 7,2 C 89 % 0 lf 1019,5 hPa 0,0 l/m 0,17 h 0,00 h 23 W/m 26,5 km/h (4 Bft) 94,93 %
21.12.2015 09:00 10,0 C 10,5 C 7,7 C 88 % 0 lf 1019,8 hPa 0,0 l/m 1,00 h 0,00 h 79 W/m 26,5 km/h (4 Bft) 95,44 %
21.12.2015 10:00 10,4 C 11,3 C 8,6 C 86 % 0 lf 1019,8 hPa 0,0 l/m 0,98 h 0,00 h 168 W/m 28,2 km/h (4 Bft) 96,49 %
21.12.2015 11:00 11,1 C 12,4 C 9,9 C 84 % 1 lf 1019,7 hPa 0,0 l/m 0,37 h 0,33 h 109 W/m 31,7 km/h (5 Bft) 97,21 %
21.12.2015 12:00 11,3 C 12,2 C 10,1 C 80 % 0 lf 1019,4 hPa 0,0 l/m 0,17 h 0,07 h 100 W/m 35,0 km/h (5 Bft) 94,70 %
21.12.2015 13:00 11,3 C 11,7 C 10,0 C 77 % 0 lf 1018,9 hPa 0,0 l/m 0,00 h 0,00 h 52 W/m 36,7 km/h (5 Bft) 96,06 %
21.12.2015 14:00 11,4 C 11,7 C 10,0 C 77 % 0 lf 1018,5 hPa 0,0 l/m 0,00 h 0,00 h 36 W/m 32,6 km/h (5 Bft) 95,53 %
21.12.2015 15:00 11,3 C 11,6 C 9,9 C 77 % 0 lf 1018,5 hPa 0,0 l/m 0,00 h 0,10 h 20 W/m 34,0 km/h (5 Bft) 97,92 %
21.12.2015 16:00 11,4 C 11,7 C 9,8 C 78 % 0 lf 1018,1 hPa 0,0 l/m 0,00 h 0,00 h 6 W/m 32,8 km/h (5 Bft) 94,67 %
21.12.2015 17:00 11,3 C 11,3 C 9,3 C 79 % 4 lf 1018,1 hPa 0,2 l/m 0,00 h 0,47 h 0 W/m 32,0 km/h (5 Bft) 95,50 %
21.12.2015 18:00 11,1 C 11,3 C 9,3 C 81 % 0 lf 1017,9 hPa 0,0 l/m 0,00 h 0,23 h 0 W/m 32,9 km/h (5 Bft) 97,62 %
21.12.2015 19:00 11,4 C 11,5 C 9,8 C 80 % 0 lf 1017,9 hPa 0,0 l/m 0,00 h 0,00 h 0 W/m 43,0 km/h (6 Bft) 96,58 %
21.12.2015 20:00 10,8 C 10,5 C 9,0 C 88 % 9 lf 1018,4 hPa 0,0 l/m 0,00 h 0,83 h 0 W/m 43,4 km/h (6 Bft) 94,45 %
21.12.2015 21:00 10,7 C 10,2 C 9,0 C 92 % 14 lf 1019,1 hPa 0,2 l/m 0,00 h 0,93 h 0 W/m 45,7 km/h (6 Bft) 96,65 %
21.12.2015 22:00 10,6 C 10,0 C 8,9 C 95 % 15 lf 1020,1 hPa 0,2 l/m 0,00 h 0,87 h 0 W/m 36,8 km/h (5 Bft) 96,52 %
21.12.2015 23:00 10,7 C 10,5 C 9,2 C 96 % 15 lf 1021,4 hPa 0,2 l/m 0,00 h 0,63 h 0 W/m 32,2 km/h (5 Bft) 96,03 %
22.12.2015 00:00 10,9 C 10,6 C 9,4 C 96 % 15 lf 1021,8 hPa 0,0 l/m 0,00 h 0,03 h 0 W/m 23,9 km/h (4 Bft) 95,51 %
22.12.2015 01:00 11,0 C 10,8 C 9,3 C 95 % 15 lf 1022,0 hPa 0,0 l/m 0,00 h 0,00 h 0 W/m 23,6 km/h (4 Bft) 95,30 %
22.12.2015 02:00 11,2 C 11,4 C 9,7 C 95 % 2 lf 1021,7 hPa 0,0 l/m 0,00 h 0,00 h 0 W/m 27,4 km/h (4 Bft) 96,76 %
22.12.2015 03:00 11,4 C 11,6 C 10,0 C 94 % 0 lf 1021,7 hPa 0,0 l/m 0,00 h 0,00 h 0 W/m 27,6 km/h (4 Bft) 95,80 %
22.12.2015 04:00 11,3 C 11,4 C 9,7 C 94 % 4 lf 1021,5 hPa 0,0 l/m 0,00 h 0,47 h 0 W/m 25,7 km/h (4 Bft) 96,03 %
22.12.2015 05:00 11,1 C 10,6 C 9,4 C 94 % 15 lf 1021,2 hPa 2,4 l/m 0,00 h 1,00 h 0 W/m 28,2 km/h (4 Bft) 94,88 %
22.12.2015 06:00 10,8 C 10,6 C 8,9 C 96 % 15 lf 1020,9 hPa 0,4 l/m 0,00 h 0,67 h 0 W/m 28,7 km/h (4 Bft) 96,91 %
22.12.2015 07:00 10,8 C 10,6 C 8,9 C 96 % 10 lf 1020,7 hPa 0,0 l/m 0,00 h 0,47 h 0 W/m 28,9 km/h (5 Bft) 97,01 %
22.12.2015 08:00 11,1 C 10,6 C 9,4 C 94 % 0 lf 1020,8 hPa 0,0 l/m 0,00 h 0,23 h 5 W/m 27,7 km/h (4 Bft) 94,17 %
22.12.2015 09:00 11,4 C 11,4 C 9,5 C 94 % 0 lf 1020,8 hPa 0,0 l/m 0,00 h 0,00 h 25 W/m 31,6 km/h (5 Bft) 95,44 %
22.12.2015 10:00 12,3 C 12,8 C 10,0 C 90 % 0 lf 1021,0 hPa 0,0 l/m 0,00 h 0,00 h 43 W/m 33,6 km/h (5 Bft) 97,51 %
22.12.2015 11:00 13,2 C 14,6 C 11,3 C 88 % 0 lf 1020,7 hPa 0,0 l/m 0,63 h 0,00 h 139 W/m 33,3 km/h (5 Bft) 96,18 %
22.12.2015 12:00 13,8 C 15,0 C 12,4 C 85 % 0 lf 1020,0 hPa 0,0 l/m 0,50 h 0,00 h 147 W/m 35,4 km/h (5 Bft) 93,76 %
22.12.2015 13:00 14,2 C 14,8 C 12,8 C 84 % 0 lf 1019,7 hPa 0,0 l/m 0,33 h 0,00 h 121 W/m 35,2 km/h (5 Bft) 97,44 %
22.12.2015 14:00 14,2 C 14,9 C 12,7 C 83 % 0 lf 1019,5 hPa 0,0 l/m 0,37 h 0,00 h 88 W/m 29,2 km/h (5 Bft) 96,18 %
22.12.2015 15:00 13,8 C 14,0 C 12,1 C 83 % 0 lf 1019,4 hPa 0,0 l/m 0,07 h 0,00 h 43 W/m 28,5 km/h (4 Bft) 95,94 %
22.12.2015 16:00 13,4 C 13,5 C 11,7 C 83 % 0 lf 1019,5 hPa 0,0 l/m 0,13 h 0,00 h 11 W/m 28,9 km/h (5 Bft) 96,01 %
22.12.2015 17:00 13,4 C 13,7 C 11,7 C 83 % 0 lf 1019,6 hPa 0,0 l/m 0,00 h 0,00 h 0 W/m 27,1 km/h (4 Bft) 96,44 %
22.12.2015 18:00 13,4 C 13,3 C 11,7 C 83 % 0 lf 1019,4 hPa 0,0 l/m 0,00 h 0,00 h 0 W/m 21,1 km/h (4 Bft) 95,55 %
22.12.2015 19:00 13,1 C 13,2 C 11,7 C 83 % 0 lf 1019,5 hPa 0,0 l/m 0,00 h 0,00 h 0 W/m 18,5 km/h (3 Bft) 97,86 %
22.12.2015 20:00 12,9 C 13,0 C 11,4 C 83 % 0 lf 1019,2 hPa 0,0 l/m 0,00 h 0,00 h 0 W/m 22,4 km/h (4 Bft) 92,97 %
22.12.2015 21:00 13,0 C 13,2 C 11,6 C 81 % 0 lf 1018,9 hPa 0,0 l/m 0,00 h 0,00 h 0 W/m 24,3 km/h (4 Bft) 96,69 %
22.12.2015 22:00 13,1 C 13,3 C 11,6 C 77 % 0 lf 1018,6 hPa 0,0 l/m 0,00 h 0,00 h 0 W/m 30,3 km/h (5 Bft) 96,72 %
22.12.2015 23:00 12,9 C 13,0 C 11,4 C 75 % 0 lf 1018,0 hPa 0,0 l/m 0,00 h 0,00 h 0 W/m 30,6 km/h (5 Bft) 94,87 %
23.12.2015 00:00 13,0 C 13,3 C 11,7 C 77 % 0 lf 1017,9 hPa 0,0 l/m 0,00 h 0,00 h 0 W/m 30,1 km/h (5 Bft) 91,33 %
23.12.2015 01:00 13,0 C 13,2 C 11,6 C 79 % 0 lf 1017,6 hPa 0,0 l/m 0,00 h 0,00 h 0 W/m 27,4 km/h (4 Bft) 97,58 %
23.12.2015 02:00 12,8 C 12,8 C 11,1 C 81 % 0 lf 1017,6 hPa 0,0 l/m 0,00 h 0,00 h 0 W/m 28,9 km/h (5 Bft) 96,02 %
23.12.2015 03:00 12,8 C 12,8 C 11,1 C 80 % 0 lf 1017,3 hPa 0,0 l/m 0,00 h 0,03 h 0 W/m 27,3 km/h (4 Bft) 95,73 %
23.12.2015 04:00 12,7 C 12,7 C 11,0 C 80 % 0 lf 1017,2 hPa 0,0 l/m 0,00 h 0,03 h 0 W/m 36,8 km/h (5 Bft) 95,22 %
23.12.2015 05:00 11,9 C 11,5 C 10,0 C 85 % 7 lf 1017,6 hPa 0,0 l/m 0,00 h 0,50 h 5 W/m 35,6 km/h (5 Bft) 96,94 %
23.12.2015 06:00 11,1 C 11,0 C 9,6 C 92 % 10 lf 1018,3 hPa 0,0 l/m 0,00 h 0,90 h 5 W/m 33,4 km/h (5 Bft) 97,13 %
23.12.2015 07:00 11,3 C 11,1 C 9,7 C 92 % 8 lf 1019,4 hPa 0,0 l/m 0,00 h 0,53 h 5 W/m 33,5 km/h (5 Bft) 94,25 %
23.12.2015 08:00 10,9 C 10,7 C 9,2 C 93 % 5 lf 1020,4 hPa 0,0 l/m 0,00 h 0,07 h 9 W/m 25,9 km/h (4 Bft) 95,31 %
23.12.2015 09:00 10,5 C 10,7 C 9,2 C 90 % 0 lf 1021,7 hPa 0,0 l/m 0,23 h 0,00 h 41 W/m 26,9 km/h (4 Bft) 98,01 %
23.12.2015 10:00 10,9 C 12,0 C 9,9 C 89 % 0 lf 1022,8 hPa 0,0 l/m 0,83 h 0,00 h 112 W/m 30,3 km/h (5 Bft) 96,51 %
23.12.2015 11:00 11,6 C 13,5 C 10,6 C 85 % 0 lf 1023,5 hPa 0,0 l/m 0,53 h 0,03 h 133 W/m 30,3 km/h (5 Bft) 93,59 %
23.12.2015 12:00 11,7 C 13,2 C 10,6 C 83 % 0 lf 1023,9 hPa 0,0 l/m 0,10 h 0,00 h 109 W/m 28,5 km/h (4 Bft) 97,46 %
23.12.2015 13:00 12,0 C 13,7 C 10,9 C 82 % 0 lf 1024,2 hPa 0,0 l/m 0,50 h 0,00 h 133 W/m 26,9 km/h (4 Bft) 96,37 %
23.12.2015 14:00 12,1 C 13,6 C 10,8 C 80 % 0 lf 1024,7 hPa 0,0 l/m 0,87 h 0,00 h 128 W/m 26,2 km/h (4 Bft) 94,59 %
23.12.2015 15:00 11,6 C 11,8 C 9,8 C 80 % 0 lf 1025,2 hPa 0,0 l/m 1,00 h 0,00 h 59 W/m 18,4 km/h (3 Bft) 96,74 %
23.12.2015 16:00 10,9 C 10,5 C 9,0 C 83 % 0 lf 1025,6 hPa 0,0 l/m 0,23 h 0,00 h 15 W/m 13,8 km/h (3 Bft) 96,16 %
23.12.2015 17:00 10,2 C 9,9 C 8,4 C 85 % 0 lf 1025,9 hPa 0,0 l/m 0,00 h 0,00 h 0 W/m 15,5 km/h (3 Bft) 97,09 %
23.12.2015 18:00 9,5 C 9,2 C 7,8 C 86 % 0 lf 1026,4 hPa 0,0 l/m 0,00 h 0,00 h 0 W/m 12,6 km/h (3 Bft) 94,40 %
23.12.2015 19:00 8,9 C 8,4 C 6,8 C 86 % 0 lf 1026,6 hPa 0,0 l/m 0,00 h 0,00 h 6 W/m 8,3 km/h (2 Bft) 96,72 %
23.12.2015 20:00 8,1 C 7,0 C 5,2 C 87 % 0 lf 1026,5 hPa 0,0 l/m 0,00 h 0,00 h 8 W/m 4,9 km/h (1 Bft) 96,65 %
23.12.2015 21:00 7,1 C 6,6 C 4,6 C 90 % 1 lf 1026,1 hPa 0,0 l/m 0,00 h 0,00 h 8 W/m 6,7 km/h (2 Bft) 96,87 %
23.12.2015 22:00 6,5 C 6,5 C 4,8 C 92 % 0 lf 1025,8 hPa 0,0 l/m 0,00 h 0,00 h 12 W/m 10,1 km/h (2 Bft) 93,95 %
23.12.2015 23:00 6,4 C 6,4 C 4,8 C 93 % 0 lf 1025,4 hPa 0,0 l/m 0,00 h 0,00 h 12 W/m 8,5 km/h (2 Bft) 96,03 %
24.12.2015 00:00 6,0 C 5,8 C 4,4 C 93 % 0 lf 1024,8 hPa 0,0 l/m 0,00 h 0,00 h 11 W/m 9,2 km/h (2 Bft) 98,03 %
24.12.2015 01:00 5,6 C 5,6 C 4,3 C 94 % 0 lf 1024,2 hPa 0,0 l/m 0,00 h 0,00 h 11 W/m 10,2 km/h (2 Bft) 94,71 %
24.12.2015 02:00 5,3 C 5,3 C 3,9 C 95 % 1 lf 1023,9 hPa 0,0 l/m 0,00 h 0,00 h 16 W/m 8,5 km/h (2 Bft) 96,72 %
24.12.2015 03:00 5,1 C 5,2 C 4,0 C 95 % 1 lf 1023,3 hPa 0,0 l/m 0,00 h 0,00 h 14 W/m 11,3 km/h (2 Bft) 95,16 %
24.12.2015 04:00 6,0 C 6,7 C 5,4 C 96 % 0 lf 1022,7 hPa 0,0 l/m 0,00 h 0,00 h 12 W/m 16,9 km/h (3 Bft) 96,32 %
24.12.2015 05:00 6,8 C 7,0 C 5,8 C 95 % 0 lf 1021,8 hPa 0,0 l/m 0,00 h 0,00 h 13 W/m 17,1 km/h (3 Bft) 97,65 %
24.12.2015 06:00 6,8 C 7,1 C 5,6 C 94 % 0 lf 1021,1 hPa 0,0 l/m 0,00 h 0,00 h 16 W/m 20,2 km/h (4 Bft) 95,33 %
24.12.2015 07:00 7,4 C 7,7 C 6,4 C 95 % 0 lf 1020,4 hPa 0,0 l/m 0,00 h 0,00 h 17 W/m 21,7 km/h (4 Bft) 94,66 %
24.12.2015 08:00 8,0 C 8,4 C 7,0 C 94 % 0 lf 1019,9 hPa 0,0 l/m 0,03 h 0,00 h 19 W/m 20,3 km/h (4 Bft) 98,45 %
24.12.2015 09:00 8,8 C 9,6 C 8,1 C 94 % 0 lf 1019,3 hPa 0,0 l/m 1,00 h 0,00 h 88 W/m 20,1 km/h (4 Bft) 96,07 %
24.12.2015 10:00 10,3 C 11,5 C 10,0 C 92 % 0 lf 1019,2 hPa 0,0 l/m 0,73 h 0,00 h 114 W/m 20,1 km/h (4 Bft) 95,38 %
24.12.2015 11:00 11,5 C 12,3 C 10,8 C 88 % 0 lf 1018,4 hPa 0,0 l/m 0,07 h 0,00 h 87 W/m 22,6 km/h (4 Bft) 97,26 %
24.12.2015 12:00 12,7 C 14,2 C 12,0 C 84 % 0 lf 1017,8 hPa 0,0 l/m 0,80 h 0,00 h 161 W/m 23,1 km/h (4 Bft) 95,41 %
24.12.2015 13:00 13,6 C 14,5 C 12,4 C 78 % 0 lf 1017,2 hPa 0,0 l/m 0,23 h 0,00 h 112 W/m 23,8 km/h (4 Bft) 96,68 %
24.12.2015 14:00 14,3 C 15,8 C 12,8 C 73 % 0 lf 1016,6 hPa 0,0 l/m 0,87 h 0,00 h 128 W/m 29,7 km/h (5 Bft) 97,08 %
24.12.2015 15:00 14,3 C 14,6 C 12,6 C 73 % 0 lf 1016,5 hPa 0,0 l/m 0,53 h 0,00 h 52 W/m 29,6 km/h (5 Bft) 94,52 %
24.12.2015 16:00 13,5 C 12,2 C 10,0 C 77 % 3 lf 1016,6 hPa 0,2 l/m 0,00 h 0,33 h 8 W/m 29,2 km/h (5 Bft) 97,70 %
24.12.2015 17:00 13,0 C 13,0 C 11,0 C 78 % 0 lf 1017,4 hPa 0,0 l/m 0,00 h 0,00 h 0 W/m 25,2 km/h (4 Bft) 96,66 %
24.12.2015 18:00 13,1 C 13,3 C 11,7 C 76 % 0 lf 1017,8 hPa 0,0 l/m 0,00 h 0,00 h 0 W/m 27,1 km/h (4 Bft) 93,28 %
24.12.2015 19:00 13,2 C 13,3 C 11,7 C 76 % 0 lf 1017,9 hPa 0,0 l/m 0,00 h 0,00 h 0 W/m 29,9 km/h (5 Bft) 97,71 %
24.12.2015 20:00 13,1 C 13,2 C 11,6 C 77 % 0 lf 1018,2 hPa 0,0 l/m 0,00 h 0,00 h 0 W/m 29,2 km/h (5 Bft) 97,95 %
24.12.2015 21:00 12,9 C 12,5 C 11,0 C 80 % 4 lf 1018,9 hPa 0,6 l/m 0,00 h 0,33 h 3 W/m 29,3 km/h (5 Bft) 93,23 %
24.12.2015 22:00 11,0 C 9,8 C 8,6 C 90 % 15 lf 1020,2 hPa 0,4 l/m 0,00 h 0,90 h 0 W/m 24,3 km/h (4 Bft) 96,64 %
24.12.2015 23:00 9,7 C 9,0 C 7,9 C 93 % 15 lf 1021,3 hPa 0,6 l/m 0,00 h 0,63 h 0 W/m 18,6 km/h (3 Bft) 97,02 %
25.12.2015 00:00 9,3 C 8,7 C 7,5 C 95 % 15 lf 1022,1 hPa 0,0 l/m 0,00 h 0,12 h 4 W/m 16,4 km/h (3 Bft) 95,03 %
25.12.2015 01:00 8,8 C 8,3 C 7,2 C 94 % 15 lf 1022,8 hPa 0,0 l/m 0,00 h 0,00 h 5 W/m 18,4 km/h (3 Bft) 97,02 %
25.12.2015 02:00 8,6 C 8,0 C 6,8 C 94 % 13 lf 1023,5 hPa 0,0 l/m 0,00 h 0,00 h 5 W/m 15,4 km/h (3 Bft) 95,34 %
25.12.2015 03:00 8,3 C 8,1 C 6,7 C 94 % 5 lf 1023,9 hPa 0,0 l/m 0,00 h 0,00 h 0 W/m 15,4 km/h (3 Bft) 95,75 %
25.12.2015 04:00 8,5 C 7,8 C 6,7 C 92 % 0 lf 1024,6 hPa 0,0 l/m 0,00 h 0,00 h 0 W/m 16,1 km/h (3 Bft) 97,09 %
25.12.2015 05:00 8,4 C 8,1 C 6,7 C 90 % 0 lf 1025,2 hPa 0,0 l/m 0,00 h 0,00 h 0 W/m 14,8 km/h (3 Bft) 95,66 %
25.12.2015 06:00 8,4 C 8,3 C 6,7 C 90 % 0 lf 1025,5 hPa 0,0 l/m 0,00 h 0,00 h 0 W/m 14,7 km/h (3 Bft) 94,12 %
25.12.2015 07:00 8,1 C 8,1 C 6,4 C 89 % 0 lf 1025,7 hPa 0,0 l/m 0,00 h 0,00 h 0 W/m 14,0 km/h (3 Bft) 97,33 %
25.12.2015 08:00 8,0 C 8,3 C 6,7 C 89 % 0 lf 1025,9 hPa 0,0 l/m 0,00 h 0,00 h 8 W/m 11,0 km/h (2 Bft) 96,76 %
25.12.2015 09:00 8,1 C 8,4 C 6,9 C 89 % 0 lf 1026,2 hPa 0,0 l/m 0,00 h 0,00 h 23 W/m 10,9 km/h (2 Bft) 95,92 %
25.12.2015 10:00 8,5 C 9,0 C 7,7 C 88 % 0 lf 1026,4 hPa 0,0 l/m 0,00 h 0,00 h 35 W/m 12,7 km/h (3 Bft) 94,47 %
25.12.2015 11:00 9,0 C 8,7 C 7,4 C 88 % 4 lf 1026,4 hPa 0,2 l/m 0,00 h 0,87 h 42 W/m 12,8 km/h (3 Bft) 96,67 %
25.12.2015 12:00 8,8 C 7,8 C 6,9 C 91 % 14 lf 1025,9 hPa 0,8 l/m 0,00 h 0,97 h 36 W/m 10,8 km/h (2 Bft) 95,82 %
25.12.2015 13:00 8,4 C 7,8 C 6,7 C 94 % 15 lf 1025,5 hPa 1,4 l/m 0,00 h 1,00 h 24 W/m 7,7 km/h (2 Bft) 96,19 %
25.12.2015 14:00 8,2 C 7,9 C 6,8 C 95 % 15 lf 1025,0 hPa 0,4 l/m 0,00 h 0,77 h 19 W/m 7,3 km/h (2 Bft) 96,69 %
25.12.2015 15:00 8,3 C 8,3 C 7,2 C 96 % 15 lf 1024,8 hPa 0,2 l/m 0,00 h 0,03 h 11 W/m 5,6 km/h (1 Bft) 94,30 %
25.12.2015 16:00 8,4 C 8,3 C 7,2 C 97 % 15 lf 1024,7 hPa 0,0 l/m 0,00 h 0,07 h 5 W/m 7,3 km/h (2 Bft) 97,11 %
25.12.2015 17:00 8,9 C 9,2 C 7,9 C 98 % 15 lf 1024,3 hPa 0,0 l/m 0,00 h 0,00 h 5 W/m 9,4 km/h (2 Bft) 97,81 %
25.12.2015 18:00 10,4 C 10,8 C 9,2 C 98 % 15 lf 1024,1 hPa 0,0 l/m 0,00 h 0,00 h 5 W/m 19,7 km/h (3 Bft) 92,94 %
25.12.2015 19:00 11,2 C 11,7 C 9,7 C 98 % 5 lf 1024,2 hPa 0,2 l/m 0,00 h 0,00 h 5 W/m 25,0 km/h (4 Bft) 96,88 %
25.12.2015 20:00 12,0 C 12,7 C 10,0 C 97 % 0 lf 1024,1 hPa 0,0 l/m 0,00 h 0,00 h 5 W/m 31,0 km/h (5 Bft) 97,84 %
25.12.2015 21:00 12,4 C 12,6 C 10,2 C 92 % 0 lf 1024,2 hPa 0,0 l/m 0,00 h 0,00 h 5 W/m 24,0 km/h (4 Bft) 95,10 %
25.12.2015 22:00 12,5 C 12,8 C 10,7 C 90 % 0 lf 1024,0 hPa 0,0 l/m 0,00 h 0,00 h 5 W/m 24,5 km/h (4 Bft) 95,50 %
25.12.2015 23:00 12,7 C 12,8 C 10,8 C 88 % 0 lf 1024,3 hPa 0,0 l/m 0,00 h 0,00 h 5 W/m 27,8 km/h (4 Bft) 97,99 %
26.12.2015 00:00 12,8 C 13,0 C 11,1 C 87 % 0 lf 1024,4 hPa 0,0 l/m 0,00 h 0,00 h 5 W/m 30,9 km/h (5 Bft) 93,20 %
26.12.2015 01:00 13,1 C 13,3 C 11,5 C 86 % 0 lf 1024,3 hPa 0,0 l/m 0,00 h 0,00 h 5 W/m 30,8 km/h (5 Bft) 98,72 %
26.12.2015 02:00 13,5 C 13,6 C 11,7 C 84 % 0 lf 1024,4 hPa 0,0 l/m 0,00 h 0,00 h 5 W/m 31,9 km/h (5 Bft) 95,14 %
26.12.2015 03:00 13,1 C 13,1 C 11,2 C 84 % 0 lf 1024,4 hPa 0,0 l/m 0,00 h 0,10 h 5 W/m 30,4 km/h (5 Bft) 94,02 %
26.12.2015 04:00 12,9 C 12,9 C 11,1 C 84 % 0 lf 1024,2 hPa 0,0 l/m 0,00 h 0,00 h 5 W/m 31,1 km/h (5 Bft) 97,74 %
26.12.2015 05:00 12,7 C 12,8 C 10,9 C 82 % 0 lf 1024,1 hPa 0,0 l/m 0,00 h 0,00 h 5 W/m 27,8 km/h (4 Bft) 97,21 %
26.12.2015 06:00 12,5 C 12,6 C 10,7 C 83 % 0 lf 1023,7 hPa 0,0 l/m 0,00 h 0,00 h 5 W/m 22,8 km/h (4 Bft) 93,20 %
26.12.2015 07:00 12,7 C 12,8 C 10,8 C 80 % 0 lf 1023,7 hPa 0,0 l/m 0,00 h 0,00 h 5 W/m 26,3 km/h (4 Bft) 97,58 %
26.12.2015 08:00 12,4 C 12,3 C 10,4 C 80 % 0 lf 1023,8 hPa 0,0 l/m 0,13 h 0,00 h 12 W/m 22,9 km/h (4 Bft) 96,09 %
26.12.2015 09:00 12,1 C 12,4 C 10,5 C 81 % 0 lf 1024,0 hPa 0,0 l/m 0,47 h 0,00 h 42 W/m 24,1 km/h (4 Bft) 95,27 %
26.12.2015 10:00 12,7 C 13,7 C 11,4 C 80 % 0 lf 1024,0 hPa 0,0 l/m 0,77 h 0,00 h 117 W/m 27,8 km/h (4 Bft) 95,83 %
26.12.2015 11:00 13,8 C 18,5 C 12,3 C 77 % 0 lf 1023,9 hPa 0,0 l/m 1,00 h 0,00 h 198 W/m 33,1 km/h (5 Bft) 96,12 %
26.12.2015 12:00 14,6 C 17,9 C 12,8 C 75 % 0 lf 1023,7 hPa 0,0 l/m 0,97 h 0,00 h 214 W/m 31,5 km/h (5 Bft) 94,78 %
26.12.2015 13:00 14,7 C 18,0 C 12,9 C 76 % 0 lf 1023,6 hPa 0,0 l/m 0,93 h 0,00 h 175 W/m 26,3 km/h (4 Bft) 97,37 %
26.12.2015 14:00 14,9 C 17,1 C 13,1 C 76 % 0 lf 1023,3 hPa 0,0 l/m 1,00 h 0,00 h 151 W/m 26,0 km/h (4 Bft) 95,59 %
26.12.2015 15:00 14,4 C 14,7 C 12,5 C 77 % 0 lf 1023,4 hPa 0,0 l/m 1,00 h 0,00 h 60 W/m 22,0 km/h (4 Bft) 97,52 %
26.12.2015 16:00 13,7 C 13,5 C 11,6 C 78 % 0 lf 1023,4 hPa 0,0 l/m 0,23 h 0,00 h 12 W/m 21,1 km/h (4 Bft) 93,82 %
26.12.2015 17:00 12,9 C 12,6 C 10,7 C 79 % 0 lf 1023,3 hPa 0,0 l/m 0,00 h 0,00 h 5 W/m 15,8 km/h (3 Bft) 97,30 %
26.12.2015 18:00 12,1 C 11,9 C 10,0 C 82 % 0 lf 1023,3 hPa 0,0 l/m 0,00 h 0,00 h 5 W/m 16,7 km/h (3 Bft) 96,72 %
26.12.2015 19:00 11,8 C 11,8 C 9,9 C 81 % 0 lf 1023,5 hPa 0,0 l/m 0,00 h 0,00 h 0 W/m 17,1 km/h (3 Bft) 96,51 %
26.12.2015 20:00 11,2 C 10,9 C 9,2 C 82 % 0 lf 1023,7 hPa 0,0 l/m 0,00 h 0,00 h 5 W/m 14,2 km/h (3 Bft) 93,98 %
26.12.2015 21:00 10,6 C 10,6 C 8,9 C 84 % 0 lf 1023,8 hPa 0,0 l/m 0,00 h 0,00 h 5 W/m 14,8 km/h (3 Bft) 97,32 %
26.12.2015 22:00 10,2 C 10,1 C 8,3 C 84 % 0 lf 1023,9 hPa 0,0 l/m 0,00 h 0,00 h 6 W/m 14,3 km/h (3 Bft) 96,23 %
26.12.2015 23:00 10,1 C 10,0 C 8,3 C 85 % 0 lf 1023,7 hPa 0,0 l/m 0,00 h 0,00 h 7 W/m 16,6 km/h (3 Bft) 96,78 %
27.12.2015 00:00 9,9 C 9,8 C 8,2 C 87 % 0 lf 1023,6 hPa 0,0 l/m 0,00 h 0,00 h 7 W/m 15,0 km/h (3 Bft) 94,05 %
27.12.2015 01:00 9,7 C 9,7 C 8,0 C 87 % 0 lf 1023,2 hPa 0,0 l/m 0,00 h 0,00 h 7 W/m 14,6 km/h (3 Bft) 97,25 %
27.12.2015 02:00 9,7 C 10,0 C 8,2 C 86 % 0 lf 1022,9 hPa 0,0 l/m 0,00 h 0,00 h 7 W/m 13,3 km/h (3 Bft) 96,37 %
27.12.2015 03:00 9,8 C 10,0 C 8,1 C 85 % 0 lf 1023,2 hPa 0,0 l/m 0,00 h 0,00 h 7 W/m 14,0 km/h (3 Bft) 96,51 %
27.12.2015 04:00 9,7 C 9,6 C 7,9 C 84 % 0 lf 1023,1 hPa 0,0 l/m 0,00 h 0,00 h 7 W/m 11,2 km/h (2 Bft) 95,62 %
27.12.2015 05:00 9,1 C 9,1 C 7,4 C 85 % 0 lf 1023,0 hPa 0,0 l/m 0,00 h 0,00 h 11 W/m 9,9 km/h (2 Bft) 95,40 %
27.12.2015 06:00 8,9 C 9,2 C 7,3 C 86 % 0 lf 1023,0 hPa 0,0 l/m 0,00 h 0,00 h 16 W/m 13,1 km/h (3 Bft) 97,72 %
27.12.2015 07:00 9,2 C 9,3 C 7,6 C 86 % 0 lf 1023,0 hPa 0,0 l/m 0,00 h 0,00 h 16 W/m 13,0 km/h (3 Bft) 95,36 %
27.12.2015 08:00 9,1 C 9,3 C 7,2 C 85 % 0 lf 1023,3 hPa 0,0 l/m 0,00 h 0,00 h 18 W/m 11,4 km/h (2 Bft) 94,23 %
27.12.2015 09:00 9,3 C 10,0 C 7,9 C 85 % 0 lf 1023,7 hPa 0,0 l/m 0,00 h 0,00 h 41 W/m 13,5 km/h (3 Bft) 97,51 %
27.12.2015 10:00 10,1 C 11,8 C 9,3 C 84 % 0 lf 1024,2 hPa 0,0 l/m 0,87 h 0,00 h 129 W/m 14,0 km/h (3 Bft) 96,49 %
27.12.2015 11:00 11,5 C 13,1 C 10,7 C 81 % 0 lf 1024,7 hPa 0,0 l/m 1,00 h 0,00 h 197 W/m 17,3 km/h (3 Bft) 94,35 %
27.12.2015 12:00 12,5 C 14,7 C 11,5 C 81 % 0 lf 1024,8 hPa 0,0 l/m 0,97 h 0,00 h 196 W/m 20,6 km/h (4 Bft) 97,21 %
27.12.2015 13:00 13,5 C 16,0 C 12,1 C 79 % 0 lf 1024,8 hPa 0,0 l/m 1,00 h 0,00 h 164 W/m 27,3 km/h (4 Bft) 96,82 %
27.12.2015 14:00 13,7 C 15,2 C 12,1 C 79 % 0 lf 1025,0 hPa 0,0 l/m 1,00 h 0,00 h 124 W/m 29,5 km/h (5 Bft) 94,86 %
27.12.2015 15:00 13,6 C 14,0 C 12,1 C 79 % 0 lf 1025,2 hPa 0,0 l/m 0,23 h 0,00 h 48 W/m 23,6 km/h (4 Bft) 96,59 %
27.12.2015 16:00 13,4 C 13,4 C 11,5 C 77 % 0 lf 1025,6 hPa 0,0 l/m 0,00 h 0,00 h 10 W/m 23,1 km/h (4 Bft) 96,03 %
27.12.2015 17:00 12,8 C 12,6 C 10,9 C 77 % 0 lf 1026,2 hPa 0,0 l/m 0,00 h 0,00 h 5 W/m 19,4 km/h (3 Bft) 96,87 %
27.12.2015 18:00 12,4 C 12,7 C 10,9 C 77 % 0 lf 1026,7 hPa 0,0 l/m 0,00 h 0,00 h 5 W/m 20,2 km/h (4 Bft) 94,30 %
27.12.2015 19:00 12,4 C 12,1 C 10,4 C 75 % 0 lf 1027,1 hPa 0,0 l/m 0,00 h 0,00 h 5 W/m 16,9 km/h (3 Bft) 97,57 %
27.12.2015 20:00 11,7 C 10,8 C 8,8 C 76 % 0 lf 1027,7 hPa 0,0 l/m 0,00 h 0,00 h 5 W/m 8,5 km/h (2 Bft) 96,62 %
27.12.2015 21:00 10,7 C 10,6 C 9,0 C 80 % 0 lf 1028,2 hPa 0,0 l/m 0,00 h 0,00 h 0 W/m 9,2 km/h (2 Bft) 95,94 %
27.12.2015 22:00 10,4 C 9,9 C 8,1 C 81 % 0 lf 1028,7 hPa 0,0 l/m 0,00 h 0,00 h 0 W/m 5,4 km/h (1 Bft) 95,20 %
27.12.2015 23:00 9,3 C 8,3 C 6,5 C 84 % 0 lf 1028,8 hPa 0,0 l/m 0,00 h 0,00 h 9 W/m 6,4 km/h (2 Bft) 95,97 %
Min-Datum _ 24.12.15 24.12.15 24.12.15 24.12.15 21.12.15 24.12.15 - - - - 23.12.15 21.12.15
_ Min-Zeit 03:06 02:30 01:46 14:32 00:02 16:14 - - - - 20:00 00:02
Minimum _ 5,1 C 5,0 C 3,9 C 72 % 0 lf 1016,2 hPa - - - - 2,1 km/h (1 Bft) 7,14 %
Max-Datum _ 21.12.15 26.12.15 26.12.15 25.12.15 21.12.15 27.12.15 22.12.15 21.12.15 21.12.15 21.12.15 21.12.15 21.12.15
_ Max-Zeit 10:28 11:42 13:50 18:40 00:30 22:50 05:00 08:50 00:00 12:14 19:22 00:06
Maximum _ 15,8 C 20,6 C 13,3 C 99 % 15 lf 1029,0 hPa 2,4 l/m 0,03 h 0,03 h 287 W/m 64,9 km/h
W-SW (8 Bft)
100,00 %
Durchschnitt _ 11,0 C 11,2 C 9,4 C 86 % 3 lf 1022,1 hPa #11,0 l/m #24:51 h #19:26 h 42 W/m 22,5 km/h (4 Bft) 95,99 %
© 2015 W. Hausmann